LB9GJ Weather Reports


time (UTC)temp
C
wind
direction
speed
KPH
gust
KPH
rain 1hr
cm
rain 24hr
cm
rain mn
cm
humidity
%
barometer
mb
20260507094501 15 333 11.3 0.0 0.00 0.00 0.00 59 1010.6
20260507091502 15 333 11.3 0.0 0.00 0.00 0.00 59 1010.6
20260507090002 17 333 8.0 0.0 0.00 0.00 0.00 59 1010.6
20260507084502 13 333 9.7 0.0 0.00 0.00 0.00 59 1010.6
20260507083002 8 333 11.3 0.0 0.00 0.00 0.00 59 1010.6
20260507081502 7 325 9.7 0.0 0.00 0.00 0.00 59 1010.6
20260507080002 10 325 9.7 0.0 0.00 0.00 0.00 59 1010.6
20260507074502 8 325 11.3 0.0 0.00 0.00 0.00 59 1010.6
20260507073002 8 325 11.3 0.0 0.00 0.00 0.00 59 1010.6
20260507071502 8 325 9.7 0.0 0.00 0.00 0.00 59 1010.6
20260507070003 6 325 11.3 0.0 0.00 0.00 0.00 59 1010.6
20260507064502 4 325 11.3 0.0 0.00 0.00 0.00 59 1010.6
20260507063002 5 316 9.7 0.0 0.00 0.00 0.00 59 1010.6
20260507061502 3 316 12.9 0.0 0.00 0.00 0.00 59 1010.6
20260507060002 2 316 11.3 0.0 0.00 0.00 0.00 59 1010.6
20260507054502 2 314 3.2 0.0 0.00 0.00 0.00 59 1010.6
20260507053003 0 314 4.8 0.0 0.00 0.00 0.00 59 1010.6
20260507051502 -1 314 0.0 0.0 0.00 0.00 0.00 59 1010.6
20260507050002 -2 314 6.4 0.0 0.00 0.00 0.00 59 1010.6
20260507044502 -2 314 9.7 0.0 0.00 0.00 0.00 59 1010.6
20260507043002 -2 314 9.7 0.0 0.00 0.00 0.00 59 1010.6
20260507041502 -3 314 3.2 0.0 0.00 0.00 0.00 59 1010.6
20260507040002 -3 314 6.4 0.0 0.00 0.00 0.00 59 1010.6
20260507034502 -4 316 11.3 0.0 0.00 0.00 0.00 59 1010.6
20260507033001 -4 316 11.3 0.0 0.00 0.00 0.00 59 1010.6
20260507031502 -5 316 6.4 0.0 0.00 0.00 0.00 59 1010.6
20260507030002 -4 316 8.0 0.0 0.00 0.00 0.00 59 1010.6
20260507024502 -4 316 9.7 0.0 0.00 0.00 0.00 59 1010.6
20260507023002 -5 310 8.0 0.0 0.00 0.00 0.00 59 1010.6
20260507021502 -5 310 3.2 0.0 0.00 0.00 0.00 59 1010.6
20260507020002 -5 312 4.8 0.0 0.00 0.00 0.00 59 1010.6
20260507014502 -5 312 4.8 0.0 0.00 0.00 0.00 59 1010.6
20260507013002 -5 312 6.4 0.0 0.00 0.00 0.00 59 1010.6
20260507011502 -5 312 6.4 0.0 0.00 0.00 0.00 59 1010.6
20260507010002 -5 312 4.8 0.0 0.00 0.00 0.00 59 1010.6
20260507004502 -5 308 3.2 0.0 0.00 0.00 0.00 59 1010.6
20260507003002 -4 308 9.7 0.0 0.00 0.00 0.00 59 1010.6
20260507001502 -3 308 8.0 0.0 0.00 0.00 0.00 59 1010.6
20260507000002 -3 304 11.3 0.0 0.00 0.00 0.00 59 1010.6
20260506234502 -4 304 9.7 0.0 0.00 0.00 0.00 59 1010.6
20260506233001 -4 304 6.4 0.0 0.00 0.00 0.00 59 1010.6
20260506231502 -5 304 3.2 0.0 0.00 0.00 0.00 59 1010.6
20260506230002 -4 304 3.2 0.0 0.00 0.00 0.00 59 1010.6
20260506224502 -4 300 9.7 0.0 0.00 0.00 0.00 59 1010.6
20260506223002 -4 300 11.3 0.0 0.00 0.00 0.00 59 1010.6
20260506221502 -4 293 11.3 0.0 0.00 0.00 0.00 59 1010.6
20260506220002 -4 293 3.2 0.0 0.00 0.00 0.00 59 1010.6
20260506214502 -3 293 6.4 0.0 0.00 0.00 0.00 59 1010.6
20260506213002 -4 293 3.2 0.0 0.00 0.00 0.00 59 1010.6
20260506211502 -3 293 9.7 0.0 0.00 0.00 0.00 59 1010.6
20260506210001 -3 293 1.6 0.0 0.00 0.00 0.00 59 1010.6
20260506204502 -3 294 0.0 0.0 0.00 0.00 0.00 59 1010.6
20260506203002 -3 294 0.0 0.0 0.00 0.00 0.00 59 1010.6
20260506201503 -2 300 11.3 0.0 0.00 0.00 0.00 59 1010.6
20260506200002 -2 300 9.7 0.0 0.00 0.00 0.00 59 1010.6
20260506194502 -2 300 0.0 0.0 0.00 0.00 0.00 59 1010.6
20260506193002 -2 300 9.7 0.0 0.00 0.00 0.00 59 1010.6
20260506191502 -2 300 3.2 0.0 0.00 0.00 0.00 59 1010.6
20260506190001 -1 300 11.3 0.0 0.00 0.00 0.00 59 1010.6
20260506184502 -1 300 11.3 0.0 0.00 0.00 0.00 59 1010.6
20260506183002 0 300 9.7 0.0 0.00 0.00 0.00 59 1010.6
20260506181502 0 285 8.0 0.0 0.00 0.00 0.00 59 1010.6
20260506180002 0 285 6.4 0.0 0.00 0.00 0.00 59 1010.6
20260506174502 1 285 8.0 0.0 0.00 0.00 0.00 59 1010.6
20260506173001 1 285 8.0 0.0 0.00 0.00 0.00 59 1010.6
20260506171502 1 285 6.4 0.0 0.00 0.00 0.00 59 1010.6
20260506170001 1 285 6.4 0.0 0.00 0.00 0.00 59 1010.6
20260506164502 1 285 11.3 0.0 0.00 0.00 0.00 59 1010.6
20260506163002 2 269 12.9 0.0 0.00 0.00 0.00 59 1010.6
20260506161502 2 269 12.9 0.0 0.00 0.00 0.00 59 1010.6
20260506160001 2 269 12.9 0.0 0.00 0.00 0.00 59 1010.6
20260506154502 3 276 9.7 0.0 0.00 0.00 0.00 59 1010.6
20260506153001 1 276 11.3 0.0 0.00 0.00 0.00 59 1010.6
20260506151502 2 276 11.3 0.0 0.00 0.00 0.00 59 1010.6
20260506150002 2 276 11.3 0.0 0.00 0.00 0.00 59 1010.6
20260506144502 6 276 12.9 0.0 0.00 0.00 0.00 59 1010.6
20260506143001 5 289 11.3 0.0 0.00 0.00 0.00 59 1010.6
20260506141502 8 289 9.7 0.0 0.00 0.00 0.00 59 1010.6
20260506140002 9 292 11.3 0.0 0.00 0.00 0.00 59 1010.6
20260506134502 6 292 9.7 0.0 0.00 0.00 0.00 59 1010.6
20260506133002 5 292 6.4 0.0 0.00 0.00 0.00 59 1010.6
20260506131502 5 292 9.7 0.0 0.00 0.00 0.00 59 1010.6
20260506130003 5 292 11.3 0.0 0.00 0.00 0.00 59 1010.6
20260506124502 5 285 11.3 0.0 0.00 0.00 0.00 59 1010.6
20260506123003 7 285 9.7 0.0 0.00 0.00 0.00 59 1010.6
20260506121502 11 285 12.9 0.0 0.00 0.00 0.00 59 1010.6
20260506120003 9 304 14.5 0.0 0.00 0.00 0.00 59 1010.6
20260506114502 5 304 0.0 0.0 0.00 0.00 0.00 59 1010.6
20260506113002 16 304 14.5 0.0 0.00 0.00 0.00 59 1010.6
20260506111502 17 304 12.9 0.0 0.00 0.00 0.00 59 1010.6
20260506110003 16 304 11.3 0.0 0.00 0.00 0.00 59 1010.6
20260506104502 5 308 9.7 0.0 0.00 0.00 0.00 59 1010.6
20260506103002 10 308 11.3 0.0 0.00 0.00 0.00 59 1010.6
20260506101502 8 308 11.3 0.0 0.00 0.00 0.00 59 1010.6
20260506100003 13 308 11.3 0.0 0.00 0.00 0.00 59 1010.6